This is the latest recevied weather packets stored in our database for station/object W1WRA. If no packets are shown the sender has not sent any weather packets the latest 10 day(s).
| Time | Temp. | Humidity | Pressure | Rain* | Wind** | Luminosity | Snow |
|---|---|---|---|---|---|---|---|
| 1777472117 | 10° C | 71% | 1017.7 hPa | 0 mm | - | 232 W/m² | - |
| 1777469118 | 9.44° C | 72% | 1017.8 hPa | 0 mm | - | 169 W/m² | - |
| 1777468518 | 8.89° C | 73% | 1017.8 hPa | 0 mm | - | 294 W/m² | - |
| 1777466115 | 8.33° C | 73% | 1018.2 hPa | 0 mm | - | 117 W/m² | - |
| 1777464915 | 8.33° C | 73% | 1018.4 hPa | 0 mm | - | 103 W/m² | - |
| 1777457717 | 6.67° C | 70% | 1017.9 hPa | 0 mm | - | 9 W/m² | - |
| 1777457117 | 6.67° C | 70% | 1017.9 hPa | 0 mm | - | 5 W/m² | - |
| 1777456517 | 6.67° C | 70% | 1017.7 hPa | 0 mm | - | 2 W/m² | - |
| 1777455917 | 6.67° C | 69% | 1017.6 hPa | 0 mm | - | 1 W/m² | - |
| 1777452916 | 6.67° C | 69% | 1017.7 hPa | 0 mm | - | 0 W/m² | - |
| 1777450516 | 6.67° C | 72% | 1017.8 hPa | 0 mm | - | 0 W/m² | - |
| 1777447517 | 7.22° C | 71% | 1018.8 hPa | 0 mm | - | 0 W/m² | - |
| 1777445717 | 7.22° C | 70% | 1019.5 hPa | 0 mm | - | 0 W/m² | - |
| 1777445117 | 7.22° C | 70% | 1019.2 hPa | 0 mm | - | 0 W/m² | - |
| 1777443918 | 7.22° C | 71% | 1019.5 hPa | 0 mm | - | 0 W/m² | - |
| 1777443318 | 7.22° C | 70% | 1019.5 hPa | 0 mm | - | 0 W/m² | - |
| 1777424717 | 7.78° C | 50% | 1020.5 hPa | 0 mm | - | 0 W/m² | - |
| 1777420517 | 9.44° C | 26% | 1020 hPa | 0 mm | - | 1 W/m² | - |
| 1777419918 | 10° C | 25% | 1019.9 hPa | 0 mm | - | 2 W/m² | - |
| 1777419318 | 10.56° C | 28% | 1019.9 hPa | 0 mm | - | 4 W/m² | - |
| 1777410916 | 14.44° C | 38% | 1020.4 hPa | 0 mm | - | 82 W/m² | - |
| 1777409117 | 15.56° C | 42% | 1020.2 hPa | 0 mm | - | 76 W/m² | - |
| 1777406118 | 16.67° C | 43% | 1020.7 hPa | 0 mm | - | 77 W/m² | - |
| 1777400136 | 19.44° C | 40% | 1021.2 hPa | 0 mm | - | 845 W/m² | - |
| 1777398916 | 19.44° C | 40% | 1021.3 hPa | 0 mm | - | 889 W/m² | - |
* Rain latest hour (hover to see other rain measurements)
** Current wind speed in m/s (hover to see current wind gust speed)